When you browse on this site, cookies collect data to enhance your experience and personalize the content and advertising you see.
Visit our Privacy Policy to learn more. By continuing to use the site, you agree to this use of cookies and data.
  • In Portugal
  • List of Countries
  • For 7 days
  • Water Temperature
  • Satellite Maps
  • Weather Map
  • Weather Widgets
  • user-avatar
    Login

    Hourly Weather Swietoszow

    Today, 19 December, Wednesday

    Time Temperature Precipitation Wind Pressure Humidity
    00:00 -1°C° 0 mm 2 mps 756 mmHg 91%
    01:00 -1°C° 0 mm 3 mps 755 mmHg 91%
    02:00 -1°C° 0 mm 3 mps 755 mmHg 91%
    03:00 -1°C° 0 mm 3 mps 755 mmHg 90%
    04:00 -1°C° 0 mm 3 mps 754 mmHg 90%
    05:00 -1°C° 0 mm 3 mps 754 mmHg 89%
    06:00 -1°C° 0 mm 3 mps 754 mmHg 89%
    07:00 -2°C° 0 mm 4 mps 753 mmHg 88%
    08:00 -2°C° 0 mm 4 mps 753 mmHg 84%
    09:00 -1°C° 0 mm 4 mps 753 mmHg 81%
    10:00 -1°C° 0 mm 4 mps 753 mmHg 77%
    11:00 0°C° 0 mm 4 mps 753 mmHg 75%
    12:00 0°C° 0 mm 4 mps 752 mmHg 73%
    13:00 +1°C° 0 mm 4 mps 752 mmHg 71%
    14:00 +1°C° 0 mm 3 mps 752 mmHg 73%
    15:00 +1°C° 0 mm 3 mps 752 mmHg 75%
    16:00 0°C° 0 mm 3 mps 751 mmHg 77%
    17:00 0°C° 0.1 mm 3 mps 751 mmHg 78%
    18:00 0°C° 0.1 mm 3 mps 751 mmHg 79%
    19:00 0°C° 0.1 mm 3 mps 751 mmHg 79%
    20:00 0°C° 0.2 mm 3 mps 751 mmHg 80%
    21:00 0°C° 0.2 mm 3 mps 751 mmHg 81%
    22:00 0°C° 0.2 mm 3 mps 751 mmHg 82%
    23:00 0°C° 0.3 mm 3 mps 751 mmHg 83%

    Tomorrow, 20 December, Thursday

    Time Temperature Precipitation Wind Pressure Humidity
    00:00 0°C° 0.3 mm 3 mps 751 mmHg 84%
    01:00 0°C° 0.3 mm 3 mps 751 mmHg 85%
    02:00 0°C° 0.4 mm 3 mps 751 mmHg 86%
    03:00 0°C° 0.4 mm 3 mps 750 mmHg 87%
    04:00 0°C° 0.4 mm 3 mps 750 mmHg 88%
    05:00 0°C° 0.5 mm 3 mps 750 mmHg 89%
    06:00 0°C° 0.5 mm 3 mps 750 mmHg 90%
    07:00 0°C° 0.5 mm 3 mps 750 mmHg 91%
    08:00 0°C° 0.3 mm 3 mps 750 mmHg 90%
    09:00 0°C° 0.3 mm 3 mps 750 mmHg 89%
    10:00 0°C° 0.3 mm 3 mps 750 mmHg 89%
    11:00 0°C° 0.2 mm 3 mps 750 mmHg 88%
    12:00 +1°C° 0.2 mm 3 mps 750 mmHg 88%
    13:00 +1°C° 0.2 mm 3 mps 750 mmHg 87%
    14:00 +1°C° 0.1 mm 3 mps 750 mmHg 88%
    15:00 +1°C° 0.1 mm 3 mps 750 mmHg 88%
    16:00 +1°C° 0.1 mm 3 mps 750 mmHg 89%
    17:00 +1°C° 0 mm 3 mps 750 mmHg 89%
    18:00 0°C° 0 mm 4 mps 750 mmHg 89%
    19:00 0°C° 0 mm 4 mps 750 mmHg 89%
    20:00 0°C° 0 mm 4 mps 750 mmHg 89%
    21:00 +1°C° 0 mm 4 mps 750 mmHg 89%
    22:00 +1°C° 0 mm 4 mps 750 mmHg 89%
    23:00 +1°C° 0 mm 4 mps 750 mmHg 89%

    Day after tomorrow, 21 December, Friday

    Time Temperature Precipitation Wind Pressure Humidity
    00:00 +1°C° 0 mm 4 mps 750 mmHg 89%
    01:00 +1°C° 0 mm 4 mps 750 mmHg 89%
    02:00 +1°C° 0 mm 4 mps 750 mmHg 88%
    03:00 +1°C° 0 mm 4 mps 749 mmHg 88%
    04:00 +1°C° 0 mm 4 mps 749 mmHg 87%
    05:00 +1°C° 0.1 mm 4 mps 749 mmHg 87%
    06:00 +1°C° 0.1 mm 4 mps 748 mmHg 87%
    07:00 +1°C° 0.1 mm 4 mps 748 mmHg 87%
    08:00 +3°C° 0 mm 4 mps 748 mmHg 86%
    09:00 +3°C° 0 mm 4 mps 747 mmHg 86%
    10:00 +2°C° 0 mm 5 mps 747 mmHg 85%
    11:00 +2°C° 0.2 mm 5 mps 746 mmHg 85%
    12:00 +3°C° 0.2 mm 5 mps 745 mmHg 84%
    13:00 +3°C° 0.2 mm 5 mps 744 mmHg 84%
    14:00 +3°C° 0.7 mm 5 mps 743 mmHg 84%
    15:00 +3°C° 0.7 mm 5 mps 742 mmHg 84%
    16:00 +3°C° 0.7 mm 6 mps 741 mmHg 84%
    17:00 +4°C° 0.9 mm 6 mps 741 mmHg 84%
    18:00 +5°C° 0.9 mm 6 mps 740 mmHg 84%
    19:00 +7°C° 0.9 mm 6 mps 739 mmHg 84%
    20:00 +7°C° 0.1 mm 6 mps 740 mmHg 83%
    21:00 +6°C° 0.1 mm 7 mps 740 mmHg 81%
    22:00 +6°C° 0.1 mm 7 mps 740 mmHg 79%
    23:00 +6°C° 0.1 mm 7 mps 740 mmHg 79%

    22 December, Saturday

    Time Temperature Precipitation Wind Pressure Humidity
    00:00 +5°C° 0.1 mm 6 mps 741 mmHg 79%
    01:00 +5°C° 0.1 mm 6 mps 741 mmHg 79%
    02:00 +5°C° 0 mm 6 mps 741 mmHg 80%
    03:00 +5°C° 0 mm 6 mps 742 mmHg 80%
    04:00 +4°C° 0 mm 6 mps 742 mmHg 81%
    05:00 +5°C° 0 mm 5 mps 742 mmHg 81%
    06:00 +5°C° 0 mm 5 mps 741 mmHg 82%
    07:00 +6°C° 0 mm 5 mps 741 mmHg 82%
    08:00 +6°C° 0.1 mm 5 mps 741 mmHg 83%
    09:00 +6°C° 0.1 mm 5 mps 740 mmHg 84%
    10:00 +6°C° 0.1 mm 5 mps 740 mmHg 86%
    11:00 +7°C° 1.3 mm 5 mps 739 mmHg 85%
    12:00 +7°C° 1.3 mm 6 mps 739 mmHg 85%
    13:00 +6°C° 1.3 mm 7 mps 739 mmHg 85%
    14:00 +6°C° 0.2 mm 7 mps 740 mmHg 84%
    15:00 +7°C° 0.2 mm 6 mps 741 mmHg 83%
    16:00 +7°C° 0.2 mm 6 mps 741 mmHg 82%
    17:00 +7°C° 0.1 mm 6 mps 742 mmHg 81%
    18:00 +5°C° 0.1 mm 6 mps 742 mmHg 80%
    19:00 +5°C° 0.1 mm 7 mps 743 mmHg 79%
    20:00 +5°C° 0.2 mm 6 mps 743 mmHg 79%
    21:00 +5°C° 0.2 mm 6 mps 743 mmHg 79%
    22:00 +5°C° 0.2 mm 6 mps 744 mmHg 79%
    23:00 +5°C° 0.4 mm 7 mps 744 mmHg 80%

    23 December, Sunday

    Time Temperature Precipitation Wind Pressure Humidity
    00:00 +5°C° 0.4 mm 7 mps 745 mmHg 80%
    01:00 +5°C° 0.4 mm 7 mps 746 mmHg 81%
    02:00 +5°C° 0.2 mm 7 mps 746 mmHg 81%
    03:00 +4°C° 0.2 mm 7 mps 747 mmHg 82%
    04:00 +4°C° 0.2 mm 6 mps 747 mmHg 82%
    05:00 +4°C° 0.1 mm 6 mps 747 mmHg 82%
    06:00 +4°C° 0.1 mm 6 mps 748 mmHg 83%
    07:00 +5°C° 0.1 mm 5 mps 748 mmHg 83%
    08:00 +4°C° 0.1 mm 6 mps 748 mmHg 83%
    09:00 +4°C° 0.1 mm 6 mps 749 mmHg 82%
    10:00 +4°C° 0.1 mm 6 mps 749 mmHg 81%
    11:00 +4°C° 0.1 mm 6 mps 749 mmHg 80%
    12:00 +4°C° 0.1 mm 6 mps 749 mmHg 79%
    13:00 +5°C° 0.1 mm 6 mps 749 mmHg 77%
    14:00 +4°C° 0.3 mm 6 mps 749 mmHg 78%
    15:00 +4°C° 0.3 mm 6 mps 749 mmHg 79%
    16:00 +4°C° 0.3 mm 6 mps 749 mmHg 80%
    17:00 +4°C° 0.2 mm 6 mps 750 mmHg 80%
    18:00 +4°C° 0.2 mm 6 mps 750 mmHg 80%
    19:00 +4°C° 0.2 mm 7 mps 750 mmHg 81%
    20:00 +4°C° 0.1 mm 6 mps 751 mmHg 81%
    21:00 +3°C° 0.1 mm 6 mps 751 mmHg 82%
    22:00 +3°C° 0.1 mm 6 mps 752 mmHg 83%
    23:00 +3°C° 0.2 mm 6 mps 752 mmHg 84%

    24 December, Monday

    Time Temperature Precipitation Wind Pressure Humidity
    00:00 +3°C° 0.2 mm 5 mps 752 mmHg 85%
    01:00 +3°C° 0.2 mm 5 mps 753 mmHg 86%
    02:00 +4°C° 0.1 mm 4 mps 753 mmHg 88%
    03:00 +3°C° 0.1 mm 4 mps 753 mmHg 89%
    04:00 +3°C° 0.1 mm 3 mps 754 mmHg 90%
    05:00 +3°C° 0.1 mm 3 mps 754 mmHg 91%
    06:00 +3°C° 0.1 mm 3 mps 754 mmHg 91%
    07:00 +3°C° 0.1 mm 3 mps 754 mmHg 91%
    08:00 +3°C° 0.1 mm 3 mps 755 mmHg 90%
    09:00 +3°C° 0.1 mm 3 mps 755 mmHg 88%
    10:00 +4°C° 0.1 mm 4 mps 756 mmHg 87%
    11:00 +4°C° 0.1 mm 4 mps 756 mmHg 85%
    12:00 +4°C° 0.1 mm 4 mps 756 mmHg 83%
    13:00 +4°C° 0.1 mm 4 mps 756 mmHg 82%
    14:00 +4°C° 0.1 mm 4 mps 756 mmHg 83%
    15:00 +4°C° 0.1 mm 3 mps 757 mmHg 84%
    16:00 +4°C° 0.1 mm 3 mps 757 mmHg 86%
    17:00 +3°C° 0.1 mm 3 mps 757 mmHg 86%
    18:00 +3°C° 0.1 mm 3 mps 757 mmHg 87%
    19:00 +3°C° 0.1 mm 3 mps 757 mmHg 87%
    20:00 +3°C° 0 mm 3 mps 757 mmHg 88%
    21:00 +4°C° 0 mm 2 mps 757 mmHg 89%
    22:00 +3°C° 0 mm 2 mps 758 mmHg 91%
    23:00 +3°C° 0 mm 2 mps 757 mmHg 91%
    Show more